Simultaneous Nadir Overpasses (SNOs) Predictions

Prediction of SNOs between METOP-A and NOAA-19 Satellite Orbit:

Table of predicted SNOs for the next 14.0 days since TLE Epoch: 7/3/2020
Index Date (METOP-A) Time (METOP-A) Lat,Lon (METOP-A) SZA (METOP-A ) Date (NOAA-19) Time (NOAA-19) Lat,Lon (NOAA-19) SZA (NOAA-19 ) Distance(km) Time Diff (sec)
1 07/05/2020 12:46:39 80.59, 2.11 58.08 07/05/2020 12:45:26 80.57, 2.09 58.05 1.61 73
2 07/05/2020 13:37:20 -80.59, 169.40 121.93 07/05/2020 13:36:31 -80.57, 169.31 121.95 2.12 49
3 07/05/2020 14:28:01 80.58, -23.38 58.07 07/05/2020 14:27:27 80.58, -23.56 58.06 3.29 34
4 07/05/2020 15:18:42 -80.58, 143.92 121.94 07/05/2020 15:18:31 -80.57, 144.01 121.94 1.94 11
5 07/05/2020 16:09:23 80.57, -48.86 58.06 07/05/2020 16:09:27 80.57, -48.86 58.07 0.69 4
6 07/05/2020 17:00:04 -80.56, 118.44 121.95 07/05/2020 17:00:32 -80.57, 118.37 121.94 1.62 28
7 07/05/2020 17:50:44 80.58, -74.02 58.09 07/05/2020 17:51:27 80.56, -74.16 58.07 3.15 43
8 07/05/2020 18:41:26 -80.55, 92.96 121.96 07/05/2020 18:42:32 -80.56, 93.07 121.93 2.41 66
9 07/16/2020 13:59:59 80.60, -16.34 59.55 07/16/2020 13:58:50 80.59, -16.27 59.54 1.35 69
10 07/16/2020 14:50:40 -80.60, 151.03 120.44 07/16/2020 14:49:56 -80.60, 150.88 120.46 2.84 44
11 07/16/2020 15:41:21 80.59, -41.83 59.55 07/16/2020 15:40:51 80.60, -41.93 59.55 2.30 30
12 07/16/2020 16:32:02 -80.59, 125.55 120.44 07/16/2020 16:31:56 -80.59, 125.58 120.45 0.58 6
13 07/16/2020 17:22:42 80.58, -67.31 59.54 07/16/2020 17:22:50 80.59, -67.23 59.56 2.33 8
14 07/16/2020 18:13:23 -80.58, 100.06 120.45 07/16/2020 18:13:56 -80.59, 99.92 120.43 3.06 33
15 07/16/2020 19:04:03 80.59, -92.47 59.58 07/16/2020 19:04:50 80.58, -92.53 59.58 1.34 47
